This is the latest recevied weather packets stored in our database for station/object N9XRG. If no packets are shown the sender has not sent any weather packets the latest 10 day(s).
| Time | Temp. | Humidity | Pressure | Rain* | Wind** | Luminosity | Snow |
|---|---|---|---|---|---|---|---|
| 1778184856 | 15.56° C | 38% | 1012.4 hPa | 0 mm | - | 354 W/m² | - |
| 1778184553 | 15.56° C | 40% | 1012.5 hPa | 0 mm | - | 365 W/m² | - |
| 1778184248 | 15.56° C | 37% | 1012.8 hPa | 0 mm | - | 205 W/m² | - |
| 1778183944 | 16.11° C | 41% | 1012.7 hPa | 0 mm | - | 317 W/m² | - |
| 1778183642 | 15° C | 37% | 1012.8 hPa | 0 mm | - | 363 W/m² | - |
| 1778183339 | 15.56° C | 38% | 1013.1 hPa | 0 mm | - | 285 W/m² | - |
| 1778183036 | 15.56° C | 40% | 1013.3 hPa | 0 mm | - | 882 W/m² | - |
| 1778182732 | 15° C | 40% | 1013.3 hPa | 0 mm | - | 404 W/m² | - |
| 1778182429 | 15° C | 38% | 1013.3 hPa | 0 mm | - | 228 W/m² | - |
| 1778182125 | 15.56° C | 38% | 1013.3 hPa | 0 mm | - | 250 W/m² | - |
| 1778181822 | 15.56° C | 41% | 1013.5 hPa | 0 mm | - | 471 W/m² | - |
| 1778181518 | 15.56° C | 39% | 1013.3 hPa | 0 mm | - | 286 W/m² | - |
| 1778181214 | 15.56° C | 39% | 1013.4 hPa | 0 mm | - | 266 W/m² | - |
| 1778180912 | 16.11° C | 37% | 1013.4 hPa | 0 mm | - | 233 W/m² | - |
| 1778180610 | 15.56° C | 41% | 1013.3 hPa | 0 mm | - | 1058 W/m² | - |
| 1778180309 | 15.56° C | 39% | 1013.6 hPa | 0 mm | - | 677 W/m² | - |
| 1778180005 | 16.11° C | 38% | 1013.5 hPa | 0 mm | - | 312 W/m² | - |
| 1778179702 | 16.11° C | 38% | 1013.3 hPa | 0 mm | - | 1005 W/m² | - |
| 1778179400 | 16.11° C | 36% | 1013.4 hPa | 0 mm | - | 999 W/m² | - |
| 1778179096 | 16.67° C | 40% | 1013.7 hPa | 0 mm | - | 947 W/m² | - |
| 1778178794 | 16.11° C | 38% | 1013.5 hPa | 0 mm | - | 1012 W/m² | - |
| 1778178491 | 15.56° C | 41% | 1013.6 hPa | 0 mm | - | 1019 W/m² | - |
| 1778178187 | 15.56° C | 41% | 1013.8 hPa | 0 mm | - | 561 W/m² | - |
| 1778177883 | 16.11° C | 40% | 1013.8 hPa | 0 mm | - | 217 W/m² | - |
| 1778177579 | 16.11° C | 41% | 1013.7 hPa | 0 mm | - | 961 W/m² | - |
* Rain latest hour (hover to see other rain measurements)
** Current wind speed in m/s (hover to see current wind gust speed)